Current weather by "City, St" or "zip code"  
 

Current Conditions: JACKSONVIL/CRAIG

Light Rain and Fog/Mist


71.1 F

Last Updated on Sep 28 2022, 06:53 PM EDT
Humidity: 87%
Wind Speed: G 35.8 mph
Barometer 29.88 in
Dewpoint: 66.9 F
Visibility: 6.00 mi
Precip: 00.04 in
Heat Index: 72.0 F
Wind Chill: NA
Current conditions at:

JACKSONVIL/CRAIG (KCRG)

Lat: 30.33 Lon: 81.52

Local Radar Image active severe weather and emergency alerts image image weather storm and storm spotter reports image weather observation monitoring service image
Local
Radar
Active
Alerts
Storm Reports Obs
Monitoring

Sign-up For Email & Text Message Weather Alert Notification Services



Advertise Here

Observation History for JACKSONVIL/CRAIG


Time Wind
(mph)
Vis
(mi)
Weather Precip (in) Temperature (F) Relative
Humidity
Wind
Chill
(F)
Heat
Index
(F)
Pressure
Air Dwpt altimeter
(in)
sea level
(mb)
Rmks
06:53 PM EDT G 35.8 6.00 Light Rain and Fog/Mist 00.04 71.1 66.9 87% NA 72.0 29.88 1011.9
05:53 PM EDT G 41.4 5.00 Light Rain and Fog/Mist 00.05 71.1 66.9 87% NA 72.0 29.88 1011.9
05:42 PM EDT NE 24.2 3.00 Rain and Fog/Mist 00.04 70.0 66.9 90% NA NA 29.88 1011.9
05:26 PM EDT 20.8 2.50 Light Rain and Fog/Mist 00.02 70.0 66.9 90% NA NA 29.89 1012.2
05:19 PM EDT 3.00 Light Rain and Fog/Mist 00.02 NULL % NA NA M
05:06 PM EDT G 40.3 2.00 Light Rain and Fog/Mist 00.01 NULL % NA NA M
04:53 PM EDT G 39.1 8.00 Light Rain 00.01 72.0 68.0 87% NA 73.0 29.88 1011.9
04:08 PM EDT 19.7 6.00 Light Rain and Fog/Mist 00.01 73.0 69.1 87% NA 74.1 29.87 1011.5
03:53 PM EDT G 43.8 5.00 Light Rain and Fog/Mist 00.04 73.0 70.0 90% NA 74.3 29.87 1011.5
02:53 PM EDT G 38.0 10.00 Cloudy Trace 75.0 71.1 88% NA 76.3 29.89 1012.2
01:53 PM EDT G 36.9 10.00 Light Rain 00.02 75.9 72.0 88% NA 77.4 29.92 1013.2
01:09 PM EDT NE 17.2 9.00 Light Rain Trace 75.9 73.0 91% NA 77.5 29.94 1013.6
12:53 PM EDT NE 13.9 G 25.3 7.00 Light Rain 00.05 75.0 72.0 90% NA 76.5 29.94 1013.6
12:41 PM EDT NE 13.9 6.00 Light Rain and Fog/Mist 00.05 75.0 72.0 90% NA 76.5 29.94 1013.6
11:53 AM EDT 12.8 G 23.0 7.00 Light Rain 00.03 75.9 71.1 85% NA 77.2 29.95 1014.2
10:53 AM EDT NE 16.1 G 34.4 6.00 Light Rain 00.01 75.0 69.1 82% NA 76.1 29.95 1014.2
10:23 AM EDT NE 19.7 4.00 Light Rain 00.01 75.0 68.0 79% NA 75.9 29.94 1013.9
09:53 AM EDT 15.0 G 34.4 7.00 Light Rain Trace 78.1 66.9 69% NA 78.8 29.94 1013.9
08:53 AM EDT NE 15.0 G 26.4 10.00 Cloudy -- 78.1 66.0 67% NA 78.8 29.94 1013.9
07:53 AM EDT NE 16.1 G 28.9 10.00 Mostly Cloudy -- 77.0 64.0 64% NA 77.4 29.94 1013.6
06:53 AM EDT 18.3 G 26.4 10.00 Cloudy Trace 75.0 66.0 74% NA 75.7 29.94 1013.6
05:53 AM EDT NE 19.7 G 30.0 10.00 Cloudy and Windy Trace 78.1 64.9 64% NA 78.6 29.92 1013.2
04:53 AM EDT 11.4 G 20.8 10.00 Cloudy -- 78.1 64.9 64% NA 78.6 29.91 1012.9
03:53 AM EDT NE 13.9 G 26.4 10.00 Cloudy -- 78.1 64.9 64% NA 78.6 29.94 1013.6

Regional Weather Observation


JACKSONVIL/CECIL (KVQQ)

Light Rain
62.6 F

FERNANDINA BEACH (KFHB)

Rain and Fog/Mist
NULL F

JACKSONVILLE NAS (KNIP)

Light Rain
70.0 F

JACKSONVIL/CRAIG (KCRG)

Light Rain and Fog/Mist
71.1 F

MAYPORT NAS (KNRB)

Light Rain
73.9 F

LAKE CITY (KLCQ)

Rain
NULL F

Advertise Here


Advertise Here